Flag for Germany Weather past 2 weeks in Rüsselsheim, Hesse, Germany

Now
50 °F

Sunny.


Feels Like: 49 °F
Forecast: 44 / 60 °F
Wind: 5 mph from West

Location: Wiesbaden Airport

Current Time: Sep 22, 2014 at 8:22:43 PM

Latest Report: Sep 22, 2014 at 7:58 PM


Visibility: N/A

Pressure: 30.14 "Hg

Humidity: 82%

Dew point: 45 °F

Location of RüsselsheimLocation

Historic Weather in Rüsselsheim — Graph

°F

Rüsselsheim temperature yesterday

Maximum temperature yesterday: 65 °F (at 1:58 PM)
Minimum temperature yesterday: 55 °F (at 11:58 PM)
Average temperature yesterday: 61 °F

Past Weeks' High & Low Weather Summary

 TemperatureHumidityPressure
High77 °F (Sep 8, 2:58 PM)100% (Sep 19, 6:58 AM)30.20 "Hg (Sep 19, 6:58 AM)
Low50 °F (Sep 22, 3:03 PM)38% (Sep 9, 4:58 PM)29.86 "Hg (Sep 18, 2:58 AM)
Average63 °F79%30.01 "Hg
* Reported Sep 7 6:58 PM — Sep 22 6:58 PM, Rüsselsheim, Weather by CustomWeather, © 2014

Note: Actual official high and low records may vary slightly from our data, if they occured in-between our weather recording intervals... More about our weather records

Advertising

Rüsselsheim weather history for previous 24 hours

 ConditionsComfort  
Time TempWeatherWind HumidityBarometerVisibility
6:58 PM
Sep 22
55 °FSunny.5 mph68%30.14 "HgN/A
5:58 PM55 °FSunny.13 mph67%30.11 "HgN/A
4:58 PM56 °FSunny.10 mph68%30.11 "HgN/A
3:58 PM55 °FSunny.10 mph75%30.09 "HgN/A
3:03 PM50 °FStrong thunderstorms. Fog.18 mph88%30.08 "Hg3 mi
1:58 PM57 °FMostly cloudy.7 mph72%30.06 "HgN/A
12:58 PM56 °FPartly sunny.12 mph76%30.06 "HgN/A
11:58 AM57 °FMostly cloudy.8 mph72%30.09 "HgN/A
10:58 AM56 °FCloudy.9 mph74%30.10 "HgN/A
9:58 AM55 °FMore clouds than sun.9 mph79%30.10 "HgN/A
8:58 AM54 °FMostly cloudy.8 mph84%30.11 "HgN/A
7:58 AM53 °FMostly cloudy.5 mph83%30.10 "HgN/A
6:59 AM52 °FMostly cloudy.7 mph88%30.10 "HgN/A
5:58 AM54 °FPassing clouds.7 mph88%30.10 "HgN/A
4:58 AM54 °FMostly cloudy.6 mph88%30.10 "HgN/A
3:58 AM54 °FOvercast.10 mph88%30.10 "HgN/A
2:58 AM52 °FClear.9 mph94%30.10 "HgN/A
1:58 AM53 °FClear.8 mph87%30.11 "HgN/A
12:58 AM53 °FClear.8 mph87%30.10 "HgN/A
11:58 PM
Sep 21
55 °FClear.8 mph82%30.09 "HgN/A
10:58 PM56 °FClear.8 mph82%30.08 "HgN/A
9:58 PM57 °FClear.7 mph81%30.07 "HgN/A
8:58 PM58 °FClear.9 mph85%30.05 "HgN/A
Weather by CustomWeather, © 2014

See weather overviewHow to use our weather pages